Weather Roundup
Issued by NWS

Home | Current Version | Previous Version | Graphics & Text | Print | Product List | Glossary Off
Versions: 1 2 3 4 5 6 7 8 9 10 11 12 13 14 15 16 17 18 19 20 21 22 23 24 25 26 27 28 29 30 31 32 33 34 35 36 37 38 39 40 41 42 43 44 45 46 47 48 49 50

681
NZUS93 KARX 240710
HRRWXR

CURRENT HOURLY OBSERVATIONS ACROSS
MUCH OF THE UPPER MISSISSIPPI VALLEY
NATIONAL WEATHER SERVICE LA CROSSE WI
100 AM CST TUE JAN 24 2017


...SOUTHEAST MINNESOTA...


CITY           SKY/WX    TMP DP  RH WIND       PRES   REMARKS
ROCHESTER      CLOUDY    30  27  88 CALM      29.84F
ROCHESTER/MAYO CLOUDY    32  29  87 CALM      29.85S
WINONA         CLOUDY    34  32  93 CALM      29.87S
AUSTIN         CLOUDY    30  27  86 CALM      29.84S
ALBERT LEA     CLOUDY    30  28  93 NW3       29.84S
DODGE CENTER   CLOUDY    30  28  93 MISG      29.84S
PRESTON        CLOUDY    31  27  86 W5        29.84F WCI  26
OWATONNA       CLOUDY    30  27  86 CALM      29.85S
FARIBAULT      NOT AVBL
$$

...ELSEWHERE IN MINNESOTA...


CITY           SKY/WX    TMP DP  RH WIND       PRES   REMARKS
MINNEAPOLIS    CLOUDY    32  27  81 NW7       29.86S WCI  26
INTNL FALLS    CLOUDY    29  24  82 CALM      29.80S
DULUTH         FLURRIES  32  30  92 NW6       29.80R WCI  26
RED WING       CLOUDY    32  28  86 CALM      29.85S
REDWOOD FALLS  CLOUDY    32  27  81 CALM      29.85S
MANKATO        CLOUDY    31  30  96 CALM      29.86S
WORTHINGTON    CLOUDY    31  29  92 SE3       29.82S
FAIRMONT       CLOUDY    31  29  92 CALM      29.85F
$$

...SOUTHWEST WISCONSIN...


CITY           SKY/WX    TMP DP  RH WIND       PRES   REMARKS
LA CROSSE      CLOUDY    35  32  88 CALM      29.85F
PRAIRIE DU CHI CLOUDY    33  31  93 CALM      29.86R
BOSCOBEL       CLOUDY    34  32  92 CALM      29.86S
LONE ROCK      CLOUDY    35  31  85 W3        29.85S
PLATTEVILLE    CLOUDY    34  33  96 CALM      29.85S
FORT MC COY    CLOUDY    32  32 100 CALM      29.85S FOG
CAMP DOUGLAS   CLOUDY    33  33  97 CALM      29.83S
MAUSTON-NEW LI CLOUDY    34  32  94 W6        29.83S FOG     WCI  29
VIROQUA        CLOUDY    32  32 100 CALM      29.82F VSB 3/4
WIS DELLS      CLOUDY    33  32  94 W5        29.82S WCI  29
$$

...ELSEWHERE IN WISCONSIN...


CITY           SKY/WX    TMP DP  RH WIND       PRES   REMARKS
MILWAUKEE      CLOUDY    39  34  82 W6        29.79F WCI  35
MADISON        CLOUDY    35  32  88 NW5       29.83S WCI  31
GREEN BAY      CLOUDY    36  35  96 CALM      29.78F
EAU CLAIRE     CLOUDY    32  31  96 SW5       29.84R FOG     WCI  27
BLACK RVR FLS  CLOUDY    33  33 100 CALM      29.84S FOG
MEDFORD        CLOUDY    32  31  98 W5        29.80R WCI  27
WAUSAU         CLOUDY    34  34 100 NW3       29.78F
WIS RAPIDS     CLOUDY    34  34 100 NW5       29.82S FOG     WCI  30
MARSHFIELD     CLOUDY    33  31  92 NW7       29.80R WCI  27
RICE LAKE      CLOUDY    33  32  96 CALM      29.84S FOG
$$

...NORTHEAST IOWA...


CITY           SKY/WX    TMP DP  RH WIND       PRES   REMARKS
WATERLOO       CLOUDY    32  28  85 CALM      29.86S
DUBUQUE        CLOUDY    32  30  92 W5        29.85R WCI  27
DECORAH        CLOUDY    32  30  93 CALM      29.83F
MASON CITY     CLOUDY    31  28  89 CALM      29.85F
CHARLES CITY   CLOUDY    32  32 100 CALM      29.85F
OELWEIN        CLOUDY    32  28  86 CALM      29.86S
$$

...ELSEWHERE IN IOWA...


CITY           SKY/WX    TMP DP  RH WIND       PRES   REMARKS
DES MOINES     CLOUDY    33  27  78 VRB5      29.85F WCI  29
IOWA CITY      CLOUDY    34  29  82 CALM      29.89S
FORT DODGE     CLOUDY    30  28  93 CALM      29.85F
MARSHALLTOWN   CLOUDY    33  29  85 CALM      29.85F
CEDAR RAPIDS   CLOUDY    32  28  85 CALM      29.85F
$$

...NORTHERN ILLINOIS...


CITY           SKY/WX    TMP DP  RH WIND       PRES   REMARKS
CHICAGO-OHARE  CLOUDY    38  34  85 NW8       29.80S WCI  32
CHICAGO-MIDWAY CLOUDY    39  33  79 NW12      29.81S WCI  32
MOLINE         CLOUDY    35  31  85 W5        29.86S WCI  31
ROCKFORD       CLOUDY    37  32  82 NW6       29.84F WCI  32
PEORIA         CLOUDY    36  33  89 NW6       29.86S WCI  31
$$

NOTE: "FAIR" INDICATES FEW OR NO CLOUDS BELOW 12,000 FEET WITH NO
SIGNIFICANT WEATHER AND/OR OBSTRUCTIONS TO VISIBILITY. WIND
SPEEDS ARE IN MILES-PER-HOUR.




USA.gov is the U.S. government's official web portal to all federal, state and local government web resources and services.